Temperature
31 32 32 32 33 32 32 32 32 32 31 31 30 30 30 29 28 28 27 26 25 25 24 23 22 21 21 20 20 20 20 19 19 19 19 19 19 19 18 18 18 18 18 18
31 31 32 33 32 32 32 31 32 31 31 31 31 30 31 30 29 28 28 27 26 25 24 23 22 22 21 21 20 20 20 20 19 19 19 19 19 18 18 18 18 18 18 18
31 32 32 32 31 31 31 32 32 31 31 31 31 31 31 31 29 28 28 27 27 26 25 23 23 22 22 21 21 21 20 20 20 19 19 19 19 19 19 19 18 18 18 18
32 32 31 31 31 31 31 32 31 31 31 31 31 31 31 31 30 29 28 28 27 26 25 24 23 23 22 22 21 21 20 20 20 20 19 19 19 19 19 19 19 18 18 18
31 31 31 31 32 32 31 31 31 31 31 31 31 31 32 31 30 30 30 28 28 27 26 25 24 23 23 22 22 21 21 21 20 20 19 19 19 19 19 19 19 19 18 19
32 32 32 32 32 31 31 31 31 31 32 30 31 31 31 32 31 31 31 29 28 27 26 25 25 24 23 22 22 22 21 21 21 20 20 20 19 19 19 19 19 19 19 19
30 31 31 31 31 30 31 31 30 30 30 30 31 31 31 32 32 31 31 29 28 27 27 26 25 24 23 23 22 22 21 21 21 20 20 20 20 19 19 19 19 19 19 19
30 30 31 31 31 31 31 31 30 30 30 31 30 31 32 32 31 30 30 29 28 28 27 26 25 24 23 23 22 22 22 21 21 21 20 20 20 19 19 19 19 19 19 19
30 30 31 31 31 31 31 31 32 32 31 31 31 31 32 32 31 30 30 29 28 28 27 26 25 24 24 23 22 22 22 21 21 21 21 20 20 20 19 19 19 19 19 19
30 29 31 31 30 30 31 32 31 31 29 30 31 31 31 31 31 31 30 29 28 27 27 26 25 25 24 23 23 22 22 21 21 21 21 20 20 20 20 19 19 19 19 19
30 29 30 30 30 30 30 31 31 31 31 30 30 31 32 31 31 31 30 29 28 28 27 26 25 24 24 23 23 22 21 21 21 21 21 20 20 20 20 20 19 20 20 20
28 29 29 30 30 31 31 31 31 30 29 30 31 31 31 31 31 30 29 28 27 26 26 25 25 24 23 23 22 22 22 21 21 21 21 21 21 20 20 20 20 20 20 20
27 28 27 28 29 29 30 30 31 31 31 30 30 31 30 30 30 29 28 27 26 25 25 24 24 24 23 23 22 22 22 21 21 21 21 21 21 20 20 20 20 20 20 20
25 27 27 28 29 29 29 29 30 30 30 30 30 30 30 30 29 28 27 26 25 24 24 24 23 23 22 22 22 22 22 21 21 21 21 21 21 20 20 20 20 20 20 20
26 26 27 28 28 29 29 29 29 29 30 30 30 30 30 29 28 27 26 25 25 24 23 23 23 22 22 22 22 22 21 21 21 21 21 21 21 21 20 20 20 20 20 19
24 25 26 27 28 28 28 28 29 29 29 29 29 29 29 28 27 26 25 24 24 24 23 22 22 21 21 21 21 21 21 21 21 21 21 21 21 20 20 20 20 20 20 20
24 24 25 26 27 27 27 28 28 28 28 29 29 28 27 27 26 25 24 23 23 23 22 22 21 21 21 21 21 21 21 21 21 20 20 20 20 20 20 20 20 19 19 19
22 23 24 26 25 25 27 27 28 27 27 28 27 27 27 26 25 23 22 22 22 22 21 21 21 21 21 21 21 21 21 21 20 20 20 20 20 20 20 20 19 19 19 19
22 22 24 25 25 26 26 26 27 26 26 26 26 26 25 24 24 24 22 21 21 21 21 20 21 21 21 21 20 20 20 20 20 20 20 20 20 20 20 20 19 19 19 19
22 22 23 24 24 25 26 25 24 25 25 24 24 24 24 24 26 25 22 21 21 20 20 20 20 20 20 20 20 20 20 19 19 19 20 20 20 20 20 19 19 19 19 18
21 21 22 23 24 25 25 24 24 24 24 22 22 22 22 23 23 22 21 20 19 19 19 19 19 19 20 19 19 19 19 19 19 19 19 19 19 19 19 19 19 18 18 18
22 22 22 23 23 24 23 23 24 22 21 20 20 20 21 20 20 20 19 19 19 19 18 18 18 18 19 19 19 19 19 19 18 18 18 18 18 18 18 18 18 18 17 17
21 22 23 22 22 21 20 21 20 19 19 19 19 19 19 19 19 19 19 18 18 18 18 18 18 18 18 18 18 18 18 18 18 18 17 17 17 17 17 17 17 17 17 16
20 19 20 20 20 20 19 18 18 18 18 18 18 18 18 18 18 18 18 18 17 17 17 17 17 17 17 17 17 17 17 17 17 17 17 17 17 17 17 16 16 16 16 16
19 19 19 19 19 19 18 18 17 17 17 17 17 18 18 18 17 17 17 17 17 17 17 17 16 16 16 16 16 17 17 17 16 16 16 16 16 16 16 16 16 15 15 15
18 18 19 19 18 18 17 17 16 16 17 17 17 17 17 17 17 17 16 16 16 16 16 16 16 16 16 16 16 16 16 16 16 16 15 16 15 15 15 15 15 15 15 15
Wind_Speed
10 11 11 10 10 7 6 6 4 2 3 6 7 6 6 9 10 10 11 11 11 10 10 10 9 8 8 8 8 8 7 7 6 5 4 4 3 3 3 3 3 3 2 3
11 14 12 9 8 9 8 8 6 3 4 5 6 7 7 10 12 11 11 11 12 11 11 11 10 10 9 9 9 9 8 8 7 5 4 3 2 2 2 2 3 3 3 3
16 9 8 10 10 11 10 9 7 5 4 7 6 7 8 9 11 11 12 12 12 12 13 13 12 11 11 10 10 9 9 8 8 7 5 4 3 3 3 3 3 3 3 3
14 9 9 11 12 11 10 7 7 7 8 5 6 5 5 8 10 12 12 13 13 13 14 14 14 13 12 12 11 10 9 9 8 8 7 6 4 4 3 3 3 3 3 3
12 11 12 13 11 11 7 4 7 9 9 8 7 7 3 7 8 11 12 13 13 14 14 15 14 14 13 12 11 11 11 10 9 9 8 7 6 4 3 3 4 3 3 3
10 8 10 10 7 8 6 6 6 9 10 10 7 8 4 5 7 8 10 12 13 14 14 15 14 13 13 12 12 12 12 11 10 10 9 8 7 6 5 5 4 4 4 4
13 12 9 8 9 10 11 10 8 9 9 8 5 7 5 2 4 6 8 10 11 13 14 15 15 15 14 14 13 12 12 11 11 10 10 9 8 7 7 6 5 5 4 4
15 14 13 11 12 11 14 14 11 9 8 7 7 8 4 2 3 5 6 8 10 11 13 14 15 15 15 15 14 13 13 12 11 11 10 9 8 7 6 7 5 5 4 4
12 12 10 10 10 11 13 14 13 12 12 10 7 7 6 5 5 6 6 7 9 10 12 13 14 15 15 15 15 14 13 12 11 11 10 9 9 8 7 6 6 5 4 5
8 9 10 8 8 9 12 11 10 12 11 12 10 9 6 5 5 6 7 7 8 9 11 11 12 13 13 13 13 13 13 12 12 11 10 9 9 8 7 7 6 5 5 5
10 10 10 10 13 14 12 14 12 12 12 12 11 7 3 4 5 5 6 7 7 8 10 10 11 11 11 11 12 12 12 12 11 11 10 9 9 8 8 7 7 6 6 7
8 9 11 13 9 8 13 15 15 13 12 12 13 8 2 3 4 5 5 6 5 6 8 9 10 10 11 11 12 12 12 12 11 10 10 9 9 8 8 8 7 7 7 7
5 8 11 12 11 10 12 13 15 15 13 13 14 9 4 3 3 3 4 5 5 6 7 8 9 10 10 10 11 11 11 11 11 11 10 10 9 9 8 8 7 7 6 7
6 9 12 14 9 9 12 12 13 14 13 14 15 10 6 5 3 3 4 4 6 6 7 7 8 8 8 9 10 10 11 11 10 10 10 10 10 9 8 8 7 7 6 6
5 11 12 12 10 10 12 14 15 16 16 15 12 10 8 5 4 4 3 4 5 6 7 7 7 7 7 8 9 10 10 10 10 10 11 10 9 8 8 7 7 6 6 7
4 8 11 13 12 13 14 15 16 17 16 16 14 11 6 4 3 3 4 5 6 6 6 7 7 7 7 7 8 8 9 9 10 10 10 9 9 8 8 7 7 7 7 6
6 7 10 13 12 13 16 15 16 15 13 14 15 11 6 5 4 4 4 4 4 5 5 5 5 6 6 7 7 7 7 8 8 8 8 7 7 7 7 7 7 7 6 6
8 8 8 11 11 17 9 5 8 11 10 9 8 6 6 5 3 3 3 3 4 4 3 4 5 5 6 6 7 7 7 7 7 7 7 7 7 7 6 6 6 6 5 6
10 9 9 10 14 13 8 6 8 9 8 5 6 6 4 4 4 4 2 2 2 3 3 3 4 5 5 5 6 6 6 7 7 7 7 7 7 7 7 6 6 5 5 5
9 10 10 11 13 14 7 4 2 6 9 5 5 4 4 6 7 4 2 2 1 1 2 3 3 4 4 4 5 6 6 6 6 6 6 6 6 7 7 6 6 5 5 5
10 10 13 14 13 9 1 2 4 9 4 3 1 3 4 4 3 1 1 2 1 1 2 3 3 3 3 4 4 5 5 5 5 5 5 5 5 6 6 5 5 5 5 5
9 10 11 12 14 9 2 3 4 1 2 1 1 2 2 1 1 1 1 2 2 2 2 3 3 3 3 3 4 5 5 4 4 4 4 4 5 5 4 5 5 5 5 5
6 5 5 6 5 1 1 1 2 1 1 2 3 2 1 1 1 1 0 1 2 2 2 2 3 3 2 3 3 3 3 3 3 4 4 4 4 4 4 5 5 5 5 5
5 3 5 5 4 2 1 2 2 2 2 3 3 2 1 1 1 1 0 0 1 1 1 2 3 3 2 2 1 2 2 3 3 4 3 3 4 3 3 3 4 4 4 5
6 4 6 7 6 5 4 3 2 3 4 3 3 2 2 1 1 1 1 1 1 1 1 1 1 2 2 2 1 1 2 3 4 4 4 4 4 4 3 2 1 3 2 2
8 8 9 8 6 5 5 5 5 5 4 3 3 2 2 2 3 2 2 1 1 1 1 1 1 2 1 1 1 2 2 4 4 4 4 4 4 3 3 3 2 6 2 3
Wind_Direction
196 214 216 215 227 255 262 262 250 223 188 224 238 236 209 197 204 202 199 197 198 199 193 191 192 192 187 183 183 184 184 178 182 184 188 182 182 182 172 175 167 177 183 171
204 221 225 229 228 238 245 251 247 215 206 240 253 249 228 209 211 211 207 203 202 198 191 190 193 193 192 188 186 185 187 184 188 184 192 191 188 190 182 189 170 189 184 191
220 219 208 218 219 228 238 250 259 249 219 227 257 240 223 208 211 214 216 212 206 202 196 192 194 194 194 192 191 190 188 186 191 188 189 183 180 205 194 189 183 189 189 191
227 216 210 221 224 230 235 242 253 248 240 239 244 269 212 203 207 212 213 211 208 204 200 195 194 194 195 193 190 189 187 188 189 191 197 201 203 205 196 199 175 179 185 194
216 211 216 227 229 227 240 235 233 241 249 257 238 266 224 193 214 213 210 209 207 204 200 198 197 194 194 192 188 186 187 190 190 195 196 203 210 206 197 186 174 198 189 203
227 211 224 230 225 215 194 199 218 234 245 246 246 258 251 212 219 214 208 205 204 201 200 199 196 192 193 190 189 187 186 190 191 195 200 203 206 207 203 194 192 204 202 202
217 214 209 208 202 193 209 223 226 226 229 242 224 248 256 249 217 218 211 203 199 198 197 196 194 191 191 192 191 188 186 190 192 195 201 203 206 206 206 208 203 211 207 203
216 215 205 209 221 215 215 231 239 246 247 240 210 243 249 217 213 222 214 199 193 193 194 195 193 191 192 193 193 190 188 192 193 195 199 203 207 212 211 211 220 212 218 213
222 221 197 207 219 227 219 230 246 254 259 261 239 237 238 221 216 213 206 194 191 191 190 192 190 191 192 192 193 192 190 191 193 194 194 199 204 214 216 210 218 222 219 215
237 229 206 198 207 224 240 233 234 243 249 253 245 238 237 222 218 205 200 196 191 189 187 186 186 188 189 189 189 191 191 191 191 192 195 194 199 205 211 216 216 222 222 218
236 229 214 206 217 218 213 221 231 242 249 255 255 242 218 222 220 214 205 199 193 188 183 182 181 181 180 182 183 186 186 187 189 192 193 196 197 202 207 213 216 216 217 212
230 234 231 224 223 242 230 229 226 232 238 248 261 253 170 203 212 213 210 193 187 183 178 176 174 173 177 180 182 182 184 187 189 189 189 193 197 202 207 210 214 213 213 213
223 230 226 220 213 213 224 230 235 239 242 243 250 244 165 174 200 200 195 179 170 168 165 168 169 172 178 181 183 183 185 187 187 185 187 190 197 200 204 208 208 209 210 212
248 235 237 238 234 216 221 225 231 238 240 243 245 247 220 203 204 200 189 181 176 170 168 168 168 173 177 179 181 185 190 190 188 189 191 194 199 202 203 203 204 205 206 206
243 238 241 253 256 248 241 234 231 237 245 251 251 248 243 242 232 215 201 189 184 180 176 174 172 171 174 175 179 184 188 190 191 192 196 198 198 199 201 201 205 204 204 204
243 246 242 244 244 245 246 241 237 239 243 247 250 250 254 251 223 205 197 189 188 188 184 178 174 173 177 179 180 181 185 189 191 195 200 197 195 196 197 198 201 202 203 202
232 235 239 241 235 241 239 238 237 236 240 244 245 245 240 240 224 213 199 194 192 189 182 178 179 180 181 180 178 179 180 181 186 191 196 195 192 194 198 200 200 206 206 201
236 239 238 241 230 236 239 232 236 234 237 246 245 237 231 232 232 207 199 199 196 185 180 181 181 179 177 174 177 178 176 177 182 187 190 189 186 186 192 196 201 207 207 205
224 227 236 235 232 237 229 219 223 230 237 237 231 226 225 209 203 196 193 203 205 192 182 184 184 174 168 170 170 170 174 176 180 185 187 190 190 190 193 194 200 203 203 205
203 218 232 232 236 238 221 170 230 232 228 207 215 211 219 212 226 217 166 168 142 147 149 155 155 152 155 160 160 164 169 175 183 187 191 195 197 197 199 199 199 199 200 205
196 207 225 233 237 240 205 168 201 225 209 109 167 211 224 240 262 290 118 124 134 150 134 140 141 139 143 150 157 165 172 183 191 194 196 200 204 204 201 197 195 198 203 206
220 216 219 228 234 231 72 201 226 314 46 37 336 291 264 258 236 169 133 128 142 140 147 144 134 129 136 150 161 172 184 185 185 189 193 194 195 205 197 198 199 199 200 204
234 255 248 244 245 29 43 17 5 345 306 311 311 307 239 226 213 183 182 123 124 136 153 148 139 138 144 156 165 172 178 169 167 179 189 187 188 191 193 199 200 199 200 209
224 253 256 258 236 244 287 316 318 313 308 304 293 259 206 202 205 205 303 119 125 126 140 155 149 146 150 152 151 169 177 176 176 183 187 185 189 187 183 195 199 201 204 210
254 244 247 250 249 255 251 262 291 301 301 296 287 256 237 231 236 251 290 262 235 217 193 170 167 169 164 164 177 190 185 183 189 192 194 194 193 180 176 183 195 212 214 240
244 244 247 253 251 263 266 280 283 278 278 285 285 275 269 262 262 267 278 265 252 240 222 191 185 182 178 178 188 203 198 195 198 203 207 208 201 183 181 165 109 46 53 69
Height
1486 1485 1483 1480 1479 1480 1482 1485 1487 1486 1486 1490 1491 1491 1492 1497 1500 1502 1505 1508 1511 1513 1516 1519 1520 1522 1524 1525 1526 1527 1529 1530 1532 1533 1535 1536 1537 1538 1539 1540 1540 1541 1542 1543
1484 1482 1477 1477 1479 1482 1483 1486 1486 1485 1486 1489 1489 1489 1488 1492 1496 1498 1501 1505 1508 1510 1514 1516 1518 1520 1522 1524 1525 1527 1528 1530 1531 1533 1534 1535 1537 1538 1539 1540 1540 1541 1542 1543
1478 1475 1476 1479 1481 1484 1484 1484 1484 1486 1486 1486 1488 1489 1485 1487 1492 1496 1498 1501 1504 1507 1510 1513 1516 1518 1520 1522 1524 1526 1527 1529 1530 1532 1534 1535 1536 1537 1539 1539 1540 1541 1541 1542
1474 1473 1477 1478 1479 1480 1485 1480 1483 1486 1488 1486 1487 1492 1483 1482 1487 1491 1494 1496 1499 1503 1506 1509 1512 1515 1518 1520 1522 1524 1526 1528 1529 1531 1533 1534 1536 1537 1538 1538 1539 1540 1541 1542
1473 1473 1476 1478 1476 1477 1479 1478 1481 1484 1485 1485 1484 1489 1481 1479 1483 1484 1487 1491 1494 1498 1502 1505 1509 1512 1515 1518 1520 1522 1524 1526 1528 1530 1531 1533 1535 1536 1537 1537 1537 1539 1540 1541
1469 1471 1473 1472 1474 1476 1479 1481 1483 1482 1482 1494 1486 1489 1485 1474 1477 1478 1481 1486 1490 1494 1498 1502 1506 1510 1513 1516 1518 1520 1522 1524 1526 1528 1530 1531 1533 1534 1535 1535 1536 1538 1539 1540
1473 1471 1471 1473 1475 1478 1478 1484 1494 1496 1495 1491 1480 1485 1480 1469 1471 1474 1477 1482 1486 1490 1494 1498 1502 1506 1509 1512 1515 1518 1519 1522 1524 1526 1528 1530 1531 1532 1533 1534 1535 1537 1538 1539
1475 1475 1468 1469 1470 1472 1475 1477 1492 1501 1496 1484 1482 1482 1470 1467 1470 1474 1476 1479 1483 1487 1491 1495 1498 1502 1506 1509 1512 1515 1517 1519 1522 1524 1526 1528 1530 1531 1532 1533 1535 1536 1537 1538
1466 1469 1462 1465 1467 1468 1472 1472 1467 1476 1480 1484 1477 1472 1467 1466 1469 1472 1474 1477 1480 1484 1487 1491 1495 1499 1502 1506 1509 1512 1514 1517 1519 1522 1524 1525 1527 1529 1531 1531 1532 1534 1534 1535
1463 1470 1463 1464 1467 1468 1465 1465 1471 1476 1492 1493 1481 1476 1472 1466 1467 1469 1472 1475 1478 1482 1485 1489 1492 1496 1499 1503 1506 1509 1512 1514 1517 1520 1522 1524 1525 1527 1528 1529 1530 1531 1532 1533
1462 1469 1466 1465 1466 1465 1468 1469 1469 1470 1471 1485 1488 1476 1459 1463 1465 1467 1470 1474 1476 1479 1482 1486 1490 1493 1497 1500 1504 1506 1509 1512 1514 1517 1519 1521 1523 1525 1526 1527 1528 1529 1530 1531
1465 1464 1466 1462 1458 1459 1460 1461 1465 1476 1478 1474 1475 1472 1457 1460 1463 1466 1469 1472 1476 1478 1481 1484 1487 1491 1494 1498 1501 1504 1507 1509 1512 1514 1516 1518 1520 1522 1523 1524 1525 1526 1527 1528
1467 1468 1475 1471 1467 1463 1461 1459 1458 1458 1463 1470 1474 1470 1458 1461 1464 1466 1469 1472 1475 1478 1480 1482 1485 1488 1492 1495 1498 1501 1504 1507 1509 1512 1514 1516 1517 1519 1520 1521 1522 1523 1524 1525
1470 1466 1468 1469 1461 1458 1462 1462 1460 1461 1465 1466 1464 1462 1458 1460 1464 1467 1470 1472 1474 1477 1479 1481 1483 1486 1489 1492 1495 1498 1501 1504 1506 1509 1511 1512 1514 1515 1517 1518 1519 1520 1521 1522
1468 1466 1463 1459 1456 1457 1459 1459 1460 1461 1458 1461 1458 1458 1459 1460 1464 1467 1470 1472 1474 1476 1478 1480 1482 1484 1487 1489 1492 1495 1497 1500 1503 1505 1507 1509 1510 1512 1514 1515 1516 1517 1518 1519
1469 1467 1464 1463 1458 1457 1458 1456 1456 1457 1456 1456 1457 1459 1459 1462 1465 1468 1470 1471 1472 1474 1476 1478 1480 1482 1484 1486 1488 1491 1494 1497 1499 1501 1504 1505 1507 1509 1510 1512 1513 1515 1515 1516
1467 1469 1469 1464 1457 1459 1462 1454 1453 1454 1453 1454 1456 1457 1460 1461 1464 1467 1469 1470 1471 1472 1475 1476 1478 1480 1481 1483 1485 1488 1491 1494 1496 1498 1500 1502 1503 1505 1507 1509 1510 1511 1512 1513
1471 1470 1466 1462 1465 1473 1452 1448 1449 1451 1453 1453 1454 1457 1459 1462 1464 1467 1468 1470 1471 1472 1473 1474 1476 1478 1480 1481 1483 1486 1488 1490 1493 1495 1497 1498 1500 1501 1503 1505 1506 1508 1509 1509
1468 1470 1465 1461 1462 1456 1452 1449 1450 1453 1455 1455 1456 1458 1460 1461 1463 1465 1467 1468 1470 1471 1472 1473 1475 1476 1478 1479 1481 1483 1485 1488 1490 1492 1493 1495 1496 1498 1499 1500 1502 1504 1505 1506
1465 1467 1465 1461 1464 1461 1449 1449 1452 1454 1457 1457 1458 1459 1460 1460 1459 1461 1466 1467 1468 1470 1471 1472 1473 1474 1476 1477 1479 1481 1483 1485 1486 1488 1489 1491 1492 1494 1495 1496 1498 1500 1502 1502
1462 1465 1463 1460 1458 1448 1448 1451 1454 1459 1456 1459 1459 1460 1461 1460 1461 1464 1465 1466 1467 1469 1469 1471 1472 1472 1474 1475 1476 1478 1480 1482 1483 1485 1487 1488 1489 1490 1491 1493 1494 1496 1498 1499
1456 1455 1459 1456 1457 1454 1452 1451 1453 1455 1458 1460 1461 1462 1462 1463 1463 1464 1465 1465 1466 1467 1469 1469 1470 1471 1472 1473 1474 1476 1477 1479 1481 1482 1484 1485 1486 1487 1488 1490 1491 1493 1494 1495
1455 1453 1450 1453 1454 1455 1456 1456 1458 1459 1460 1460 1461 1461 1462 1462 1462 1463 1464 1465 1465 1466 1467 1468 1469 1469 1470 1471 1473 1474 1475 1477 1478 1480 1481 1482 1483 1484 1485 1487 1488 1489 1490 1491
1456 1459 1457 1457 1454 1456 1457 1458 1459 1460 1460 1460 1460 1460 1460 1461 1461 1462 1463 1464 1464 1465 1466 1466 1467 1468 1468 1469 1470 1472 1473 1474 1476 1477 1478 1479 1480 1481 1482 1483 1484 1485 1486 1487
1456 1457 1456 1457 1457 1458 1457 1458 1459 1459 1459 1458 1459 1459 1459 1460 1460 1461 1462 1462 1463 1463 1464 1465 1466 1466 1466 1467 1468 1470 1471 1472 1473 1474 1475 1476 1477 1478 1479 1480 1480 1482 1483 1484
1457 1456 1455 1453 1454 1456 1457 1458 1458 1458 1457 1457 1457 1457 1458 1458 1459 1459 1460 1461 1461 1461 1462 1463 1463 1464 1465 1465 1466 1467 1469 1470 1470 1472 1473 1473 1474 1474 1475 1476 1477 1478 1479 1480